Time,TemperatureF,DewpointF,PressureIn,WindDirection,WindDirectionDegrees,WindSpeedMPH,WindSpeedGustMPH,Humidity,HourlyPrecipIn,Conditions,Clouds,dailyrainin,SoftwareType,DateUTC
2013-11-06 00:02:00,56.1,54.5,-100.00,SE,126,2.0,15.0,94,0.01,,,0.25,meteohub,2013-11-06 06:02:00,
2013-11-06 00:07:00,56.1,54.5,-100.00,SSW,194,5.0,15.0,94,0.01,,,0.25,meteohub,2013-11-06 06:07:00,
2013-11-06 00:12:00,56.1,54.5,-100.00,SSW,195,1.0,15.0,94,0.01,,,0.25,meteohub,2013-11-06 06:12:00,
2013-11-06 00:17:00,56.1,54.5,-100.00,SSW,213,0.0,15.0,94,0.01,,,0.25,meteohub,2013-11-06 06:17:00,
2013-11-06 00:22:00,56.1,54.5,-100.00,South,169,6.0,14.0,94,0.00,,,0.25,meteohub,2013-11-06 06:22:00,
2013-11-06 00:27:00,56.1,54.5,-100.00,South,179,7.0,17.0,94,0.00,,,0.25,meteohub,2013-11-06 06:27:00,
2013-11-06 00:32:00,56.3,54.7,-100.00,South,182,2.0,17.0,94,0.00,,,0.25,meteohub,2013-11-06 06:32:00,
2013-11-06 00:37:00,56.5,54.5,-100.00,SSE,167,0.0,18.0,93,0.00,,,0.25,meteohub,2013-11-06 06:37:00,
2013-11-06 00:42:00,56.5,54.5,-100.00,South,171,3.0,18.0,93,0.00,,,0.25,meteohub,2013-11-06 06:42:00,
2013-11-06 00:47:00,56.5,54.5,-100.00,South,180,1.0,18.0,93,0.00,,,0.25,meteohub,2013-11-06 06:47:00,
2013-11-06 00:53:00,56.5,54.5,-100.00,SSE,161,1.0,18.0,93,0.01,,,0.26,meteohub,2013-11-06 06:53:00,
2013-11-06 00:58:00,56.3,54.3,-100.00,South,176,0.0,18.0,93,0.01,,,0.26,meteohub,2013-11-06 06:58:00,
2013-11-06 01:03:00,56.3,54.7,-100.00,SSE,150,0.0,15.0,94,0.02,,,0.27,meteohub,2013-11-06 07:03:00,
2013-11-06 01:08:00,56.3,54.7,-100.00,South,189,4.0,15.0,94,0.02,,,0.27,meteohub,2013-11-06 07:08:00,
2013-11-06 01:13:00,56.3,54.7,-100.00,SSW,213,1.0,15.0,94,0.02,,,0.27,meteohub,2013-11-06 07:13:00,
2013-11-06 01:18:00,56.5,54.9,-100.00,South,177,5.0,15.0,94,0.02,,,0.27,meteohub,2013-11-06 07:18:00,
2013-11-06 01:23:00,56.5,54.9,-100.00,South,169,0.0,13.0,94,0.02,,,0.27,meteohub,2013-11-06 07:23:00,
2013-11-06 01:28:00,56.5,54.9,-100.00,SSE,158,5.0,13.0,94,0.02,,,0.27,meteohub,2013-11-06 07:28:00,
2013-11-06 01:33:00,56.5,54.9,-100.00,South,171,7.0,13.0,94,0.02,,,0.27,meteohub,2013-11-06 07:33:00,
2013-11-06 01:38:00,56.7,55.0,-100.00,SSW,197,6.0,13.0,94,0.02,,,0.27,meteohub,2013-11-06 07:38:00,
2013-11-06 01:43:00,56.7,55.0,-100.00,SSW,198,7.0,13.0,94,0.02,,,0.27,meteohub,2013-11-06 07:43:00,
2013-11-06 01:48:00,56.8,55.2,-100.00,SSE,164,0.0,14.0,94,0.02,,,0.27,meteohub,2013-11-06 07:48:00,
2013-11-06 01:53:00,56.8,55.2,-100.00,SSW,197,7.0,14.0,94,0.01,,,0.27,meteohub,2013-11-06 07:53:00,
2013-11-06 01:58:00,56.8,55.2,-100.00,SSE,148,0.0,14.0,94,0.01,,,0.27,meteohub,2013-11-06 07:58:00,
2013-11-06 02:03:00,56.8,55.2,-100.00,SE,129,0.0,13.0,94,0.00,,,0.27,meteohub,2013-11-06 08:03:00,
2013-11-06 02:08:00,56.8,55.2,-100.00,SSW,199,0.0,13.0,94,0.00,,,0.27,meteohub,2013-11-06 08:08:00,
2013-11-06 02:13:00,56.8,55.2,-100.00,SSW,200,0.0,9.0,94,0.00,,,0.27,meteohub,2013-11-06 08:13:00,
2013-11-06 02:18:00,57.0,55.2,-100.00,South,180,2.0,7.0,94,0.01,,,0.28,meteohub,2013-11-06 08:18:00,
2013-11-06 02:23:00,57.0,55.2,-100.00,South,188,4.0,11.0,94,0.03,,,0.30,meteohub,2013-11-06 08:23:00,
2013-11-06 02:28:00,57.0,55.2,-100.00,South,186,6.0,11.0,94,0.05,,,0.32,meteohub,2013-11-06 08:28:00,
2013-11-06 02:33:00,57.0,55.2,-100.00,South,191,7.0,12.0,94,0.16,,,0.43,meteohub,2013-11-06 08:33:00,
2013-11-06 02:38:00,57.0,55.6,-100.00,SSE,167,2.0,13.0,95,0.23,,,0.50,meteohub,2013-11-06 08:38:00,
2013-11-06 02:43:00,57.0,55.6,-100.00,SSE,147,0.0,13.0,95,0.24,,,0.51,meteohub,2013-11-06 08:43:00,
2013-11-06 02:48:00,57.0,55.6,-100.00,SW,215,4.0,13.0,95,0.27,,,0.54,meteohub,2013-11-06 08:48:00,
2013-11-06 02:53:00,57.2,55.8,-100.00,SW,214,3.0,9.0,95,0.29,,,0.56,meteohub,2013-11-06 08:53:00,
2013-11-06 02:58:00,57.4,55.9,-100.00,SSW,204,0.0,9.0,95,0.30,,,0.57,meteohub,2013-11-06 08:58:00,
2013-11-06 03:03:00,57.4,55.9,-100.00,SSW,213,9.0,10.0,95,0.31,,,0.58,meteohub,2013-11-06 09:03:00,
2013-11-06 03:08:00,57.6,56.1,-100.00,SW,236,0.0,10.0,95,0.32,,,0.59,meteohub,2013-11-06 09:08:00,
2013-11-06 03:13:00,57.6,56.1,-100.00,SW,230,3.0,10.0,95,0.32,,,0.59,meteohub,2013-11-06 09:13:00,
2013-11-06 03:18:00,57.6,56.1,-100.00,West,275,10.0,10.0,95,0.29,,,0.59,meteohub,2013-11-06 09:18:00,
2013-11-06 03:23:00,57.6,56.1,-100.00,West,279,1.0,11.0,95,0.31,,,0.61,meteohub,2013-11-06 09:23:00,
2013-11-06 03:28:00,57.4,55.9,-100.00,WNW,284,0.0,11.0,95,0.21,,,0.62,meteohub,2013-11-06 09:28:00,
2013-11-06 03:33:00,57.4,55.9,-100.00,SW,228,0.0,11.0,95,0.17,,,0.63,meteohub,2013-11-06 09:33:00,
2013-11-06 03:38:00,57.6,56.1,-100.00,South,182,1.0,9.0,95,0.12,,,0.63,meteohub,2013-11-06 09:38:00,
2013-11-06 03:43:00,57.6,56.1,-100.00,SSE,161,3.0,9.0,95,0.10,,,0.63,meteohub,2013-11-06 09:43:00,
2013-11-06 03:48:00,57.6,56.1,-100.00,South,172,0.0,7.0,95,0.08,,,0.63,meteohub,2013-11-06 09:48:00,
2013-11-06 03:53:00,57.6,56.1,-100.00,SSE,168,0.0,7.0,95,0.07,,,0.63,meteohub,2013-11-06 09:53:00,
2013-11-06 03:58:00,57.4,55.9,-100.00,South,171,4.0,7.0,95,0.05,,,0.63,meteohub,2013-11-06 09:58:00,
2013-11-06 04:03:00,57.6,56.1,-100.00,South,170,0.0,6.0,95,0.04,,,0.63,meteohub,2013-11-06 10:03:00,
2013-11-06 04:08:00,57.6,56.1,-100.00,SSE,151,5.0,5.0,95,0.04,,,0.63,meteohub,2013-11-06 10:08:00,
2013-11-06 04:13:00,57.7,56.3,-100.00,South,179,4.0,7.0,95,0.04,,,0.63,meteohub,2013-11-06 10:13:00,
2013-11-06 04:18:00,57.9,56.5,-100.00,SSW,209,4.0,10.0,95,0.03,,,0.63,meteohub,2013-11-06 10:18:00,
2013-11-06 04:23:00,57.9,56.5,-100.00,SW,214,6.0,10.0,95,0.01,,,0.63,meteohub,2013-11-06 10:23:00,
2013-11-06 04:28:00,57.9,56.5,-100.00,South,190,4.0,10.0,95,0.01,,,0.63,meteohub,2013-11-06 10:28:00,
2013-11-06 04:33:00,58.1,56.7,-100.00,SSW,203,7.0,10.0,95,0.00,,,0.63,meteohub,2013-11-06 10:33:00,
2013-11-06 04:38:00,58.1,56.7,-100.00,SSE,167,3.0,10.0,95,0.00,,,0.63,meteohub,2013-11-06 10:38:00,
2013-11-06 04:43:00,58.1,56.7,-100.00,South,175,4.0,11.0,95,0.00,,,0.63,meteohub,2013-11-06 10:43:00,
2013-11-06 04:48:00,58.3,56.8,-100.00,South,171,0.0,11.0,95,0.00,,,0.63,meteohub,2013-11-06 10:48:00,
2013-11-06 04:53:00,58.3,56.8,-100.00,SSW,213,7.0,10.0,95,0.01,,,0.64,meteohub,2013-11-06 10:53:00,
2013-11-06 04:58:00,58.3,56.8,-100.00,SSW,205,4.0,11.0,95,0.01,,,0.64,meteohub,2013-11-06 10:58:00,
2013-11-06 05:03:00,58.3,56.8,-100.00,SW,217,3.0,11.0,95,0.02,,,0.65,meteohub,2013-11-06 11:03:00,
2013-11-06 05:08:00,58.3,56.8,-100.00,SW,223,5.0,12.0,95,0.02,,,0.65,meteohub,2013-11-06 11:08:00,
2013-11-06 05:13:00,58.3,56.8,-100.00,SW,225,5.0,12.0,95,0.03,,,0.66,meteohub,2013-11-06 11:13:00,
2013-11-06 05:18:00,58.3,56.8,-100.00,South,187,5.0,12.0,95,0.03,,,0.66,meteohub,2013-11-06 11:18:00,
2013-11-06 05:23:00,58.3,56.8,-100.00,WSW,239,1.0,12.0,95,0.03,,,0.66,meteohub,2013-11-06 11:23:00,
2013-11-06 05:28:00,58.3,56.8,-100.00,SW,217,0.0,12.0,95,0.03,,,0.66,meteohub,2013-11-06 11:28:00,
2013-11-06 05:33:00,58.3,56.8,-100.00,SW,225,1.0,11.0,95,0.04,,,0.67,meteohub,2013-11-06 11:33:00,
2013-11-06 05:38:00,58.3,56.8,-100.00,SSW,213,0.0,9.0,95,0.04,,,0.67,meteohub,2013-11-06 11:38:00,
2013-11-06 05:43:00,58.3,56.8,-100.00,SSW,207,2.0,6.0,95,0.05,,,0.68,meteohub,2013-11-06 11:43:00,
2013-11-06 05:48:00,58.3,56.8,-100.00,SSW,211,6.0,9.0,95,0.04,,,0.68,meteohub,2013-11-06 11:48:00,
2013-11-06 05:53:00,58.3,56.8,-100.00,West,269,0.0,9.0,95,0.04,,,0.68,meteohub,2013-11-06 11:53:00,
2013-11-06 05:58:00,54.3,52.7,-100.00,WSW,254,17.0,17.0,94,0.04,,,0.68,meteohub,2013-11-06 11:58:00,
2013-11-06 06:03:00,51.4,49.5,-100.00,West,275,6.0,27.0,93,0.04,,,0.69,meteohub,2013-11-06 12:03:00,
2013-11-06 06:08:00,50.4,48.7,-100.00,WNW,292,7.0,27.0,94,0.04,,,0.69,meteohub,2013-11-06 12:08:00,
2013-11-06 06:13:00,49.8,48.2,-100.00,WNW,294,13.0,27.0,94,0.03,,,0.69,meteohub,2013-11-06 12:13:00,
2013-11-06 06:18:00,49.6,48.0,-100.00,West,271,4.0,20.0,94,0.03,,,0.69,meteohub,2013-11-06 12:18:00,
2013-11-06 06:23:00,49.6,48.0,-100.00,West,265,2.0,16.0,94,0.03,,,0.69,meteohub,2013-11-06 12:23:00,
2013-11-06 06:28:00,49.5,47.8,-100.00,West,271,3.0,14.0,94,0.02,,,0.69,meteohub,2013-11-06 12:28:00,
2013-11-06 06:33:00,49.1,47.5,-100.00,WNW,284,6.0,14.0,94,0.02,,,0.69,meteohub,2013-11-06 12:33:00,
2013-11-06 06:38:00,48.7,47.1,-100.00,WSW,242,5.0,18.0,94,0.01,,,0.69,meteohub,2013-11-06 12:38:00,
2013-11-06 06:43:00,48.2,46.6,-100.00,WNW,292,5.0,18.0,94,0.01,,,0.69,meteohub,2013-11-06 12:43:00,
2013-11-06 06:48:00,47.7,46.0,-100.00,West,275,6.0,18.0,94,0.01,,,0.69,meteohub,2013-11-06 12:48:00,
2013-11-06 06:53:00,47.5,45.9,-100.00,WNW,296,9.0,18.0,94,0.01,,,0.69,meteohub,2013-11-06 12:53:00,
2013-11-06 06:58:00,47.1,45.5,-100.00,West,261,7.0,17.0,94,0.02,,,0.70,meteohub,2013-11-06 12:58:00,
2013-11-06 07:03:00,46.9,45.3,-100.00,WNW,284,11.0,19.0,94,0.01,,,0.70,meteohub,2013-11-06 13:03:00,
2013-11-06 07:08:00,46.6,45.0,-100.00,SSW,196,6.0,24.0,94,0.01,,,0.70,meteohub,2013-11-06 13:08:00,
2013-11-06 07:13:00,46.2,44.6,-100.00,NW,307,11.0,24.0,94,0.01,,,0.70,meteohub,2013-11-06 13:13:00,
2013-11-06 07:18:00,45.9,44.2,-100.00,NNW,327,10.0,24.0,94,0.01,,,0.70,meteohub,2013-11-06 13:18:00,
2013-11-06 07:23:00,45.0,43.3,-100.00,NW,313,9.0,22.0,94,0.01,,,0.70,meteohub,2013-11-06 13:23:00,
2013-11-06 07:28:00,44.4,42.8,-100.00,WNW,288,5.0,22.0,94,0.01,,,0.70,meteohub,2013-11-06 13:28:00,
2013-11-06 07:33:00,44.2,42.6,-100.00,West,277,21.0,21.0,94,0.01,,,0.70,meteohub,2013-11-06 13:33:00,
2013-11-06 07:38:00,43.9,42.3,-100.00,WSW,246,10.0,25.0,94,0.01,,,0.70,meteohub,2013-11-06 13:38:00,
2013-11-06 07:43:00,43.7,42.1,-100.00,West,277,8.0,25.0,94,0.01,,,0.70,meteohub,2013-11-06 13:43:00,
2013-11-06 07:48:00,43.5,41.9,-100.00,West,275,16.0,25.0,94,0.01,,,0.70,meteohub,2013-11-06 13:48:00,
2013-11-06 07:53:00,43.5,41.9,-100.00,WNW,288,6.0,18.0,94,0.00,,,0.70,meteohub,2013-11-06 13:53:00,
2013-11-06 07:58:00,43.3,41.7,-100.00,WNW,290,9.0,17.0,94,0.00,,,0.70,meteohub,2013-11-06 13:58:00,
2013-11-06 08:03:00,43.3,41.7,-100.00,WNW,300,10.0,18.0,94,0.00,,,0.70,meteohub,2013-11-06 14:03:00,
2013-11-06 08:08:00,43.2,41.5,-100.00,West,276,12.0,18.0,94,0.00,,,0.70,meteohub,2013-11-06 14:08:00,
2013-11-06 08:13:00,43.0,41.4,-100.00,WSW,257,6.0,22.0,94,0.00,,,0.70,meteohub,2013-11-06 14:13:00,
2013-11-06 08:18:00,43.0,41.4,-100.00,West,265,10.0,22.0,94,0.00,,,0.70,meteohub,2013-11-06 14:18:00,
2013-11-06 08:23:00,42.8,41.2,-100.00,WNW,290,10.0,22.0,94,0.00,,,0.70,meteohub,2013-11-06 14:23:00,
2013-11-06 08:28:00,42.6,41.0,-100.00,West,261,8.0,21.0,94,0.00,,,0.70,meteohub,2013-11-06 14:28:00,
2013-11-06 08:33:00,42.3,40.6,-100.00,WSW,241,11.0,21.0,94,0.00,,,0.70,meteohub,2013-11-06 14:33:00,
2013-11-06 08:38:00,41.9,40.1,-100.00,WSW,240,11.0,21.0,93,0.00,,,0.70,meteohub,2013-11-06 14:38:00,
2013-11-06 08:43:00,41.5,39.9,-100.00,West,271,10.0,22.0,94,0.00,,,0.70,meteohub,2013-11-06 14:43:00,
2013-11-06 08:48:00,41.5,39.9,-100.00,NW,309,11.0,22.0,94,0.00,,,0.70,meteohub,2013-11-06 14:48:00,
2013-11-06 08:53:00,41.5,39.9,-100.00,West,270,11.0,19.0,94,0.00,,,0.70,meteohub,2013-11-06 14:53:00,
2013-11-06 08:58:00,41.4,39.6,-100.00,SW,232,3.0,21.0,93,0.00,,,0.70,meteohub,2013-11-06 14:58:00,
2013-11-06 09:03:00,41.2,39.4,-100.00,WNW,292,12.0,22.0,93,0.00,,,0.70,meteohub,2013-11-06 15:03:00,
2013-11-06 09:09:00,41.0,39.2,-100.00,West,279,13.0,22.0,93,0.00,,,0.70,meteohub,2013-11-06 15:09:00,
2013-11-06 09:14:00,40.8,39.0,-100.00,WNW,294,7.0,22.0,93,0.00,,,0.70,meteohub,2013-11-06 15:14:00,
2013-11-06 09:19:00,40.8,39.0,-100.00,WNW,294,5.0,20.0,93,0.00,,,0.70,meteohub,2013-11-06 15:19:00,
2013-11-06 09:24:00,41.0,39.2,-100.00,NW,324,10.0,21.0,93,0.00,,,0.70,meteohub,2013-11-06 15:24:00,
2013-11-06 09:29:00,41.2,39.4,-100.00,NW,304,6.0,22.0,93,0.00,,,0.70,meteohub,2013-11-06 15:29:00,
2013-11-06 09:34:00,41.0,39.2,-100.00,NW,306,12.0,22.0,93,0.00,,,0.70,meteohub,2013-11-06 15:34:00,
2013-11-06 09:39:00,41.2,39.4,-100.00,West,277,6.0,22.0,93,0.00,,,0.70,meteohub,2013-11-06 15:39:00,
2013-11-06 09:44:00,41.0,39.2,-100.00,WNW,303,9.0,21.0,93,0.00,,,0.70,meteohub,2013-11-06 15:44:00,
2013-11-06 09:49:00,41.0,39.2,-100.00,NW,316,8.0,21.0,93,0.00,,,0.70,meteohub,2013-11-06 15:49:00,
2013-11-06 09:54:00,40.8,38.7,-100.00,NW,312,10.0,24.0,92,0.00,,,0.70,meteohub,2013-11-06 15:54:00,
2013-11-06 09:59:00,40.8,38.7,-100.00,WNW,291,9.0,24.0,92,0.00,,,0.70,meteohub,2013-11-06 15:59:00,
2013-11-06 10:04:00,41.0,38.8,-100.00,WNW,290,8.0,20.0,92,0.00,,,0.70,meteohub,2013-11-06 16:04:00,
2013-11-06 10:09:00,40.8,38.5,-100.00,WNW,290,10.0,20.0,91,0.00,,,0.70,meteohub,2013-11-06 16:09:00,
2013-11-06 10:14:00,40.8,38.5,-100.00,West,271,5.0,19.0,91,0.00,,,0.70,meteohub,2013-11-06 16:14:00,
2013-11-06 10:19:00,41.0,38.7,-100.00,West,277,11.0,18.0,91,0.00,,,0.70,meteohub,2013-11-06 16:19:00,
2013-11-06 10:24:00,41.2,38.8,-100.00,NW,309,4.0,19.0,91,0.00,,,0.70,meteohub,2013-11-06 16:24:00,
2013-11-06 10:29:00,41.2,38.8,-100.00,West,276,5.0,19.0,91,0.00,,,0.70,meteohub,2013-11-06 16:29:00,
2013-11-06 10:34:00,41.4,38.7,-100.00,West,263,6.0,19.0,90,0.00,,,0.70,meteohub,2013-11-06 16:34:00,
2013-11-06 10:39:00,41.5,38.8,-100.00,West,263,8.0,19.0,90,0.00,,,0.70,meteohub,2013-11-06 16:39:00,
2013-11-06 10:44:00,41.7,38.7,-100.00,WNW,303,9.0,20.0,89,0.00,,,0.70,meteohub,2013-11-06 16:44:00,
2013-11-06 10:49:00,42.1,38.8,-100.00,WNW,290,5.0,20.0,88,0.00,,,0.70,meteohub,2013-11-06 16:49:00,
2013-11-06 10:54:00,42.3,38.7,-100.00,WNW,288,6.0,20.0,87,0.00,,,0.70,meteohub,2013-11-06 16:54:00,
2013-11-06 10:59:00,42.4,38.5,-100.00,West,280,6.0,17.0,86,0.00,,,0.70,meteohub,2013-11-06 16:59:00,
2013-11-06 11:04:00,42.6,38.7,-100.00,NW,304,8.0,17.0,86,0.00,,,0.70,meteohub,2013-11-06 17:04:00,
2013-11-06 11:09:00,43.0,39.0,-100.00,WNW,293,7.0,16.0,86,0.00,,,0.70,meteohub,2013-11-06 17:09:00,
2013-11-06 11:14:00,43.2,39.0,-100.00,NW,307,12.0,16.0,85,0.00,,,0.70,meteohub,2013-11-06 17:14:00,
2013-11-06 11:19:00,43.2,39.0,-100.00,West,275,10.0,14.0,85,0.00,,,0.70,meteohub,2013-11-06 17:19:00,
2013-11-06 11:24:00,43.2,38.3,-100.00,WNW,302,10.0,17.0,83,0.00,,,0.70,meteohub,2013-11-06 17:24:00,
2013-11-06 11:29:00,43.2,38.3,-100.00,WNW,294,5.0,20.0,83,0.00,,,0.70,meteohub,2013-11-06 17:29:00,
2013-11-06 11:34:00,43.2,38.3,-100.00,WNW,284,7.0,20.0,83,0.00,,,0.70,meteohub,2013-11-06 17:34:00,
2013-11-06 11:39:00,43.2,38.1,-100.00,West,273,10.0,20.0,82,0.00,,,0.70,meteohub,2013-11-06 17:39:00,
2013-11-06 11:44:00,43.0,37.9,-100.00,West,271,7.0,17.0,82,0.00,,,0.70,meteohub,2013-11-06 17:44:00,
2013-11-06 11:49:00,43.0,38.1,-100.00,WNW,293,7.0,21.0,83,0.00,,,0.70,meteohub,2013-11-06 17:49:00,
2013-11-06 11:54:00,43.3,38.5,-100.00,WNW,292,4.0,21.0,83,0.00,,,0.70,meteohub,2013-11-06 17:54:00,
2013-11-06 11:59:00,43.5,38.5,-100.00,NW,326,9.0,18.0,82,0.00,,,0.70,meteohub,2013-11-06 17:59:00,
2013-11-06 12:04:00,43.3,37.9,-100.00,NW,309,15.0,15.0,81,0.00,,,0.70,meteohub,2013-11-06 18:04:00,
2013-11-06 12:09:00,43.2,38.3,-100.00,WNW,296,7.0,21.0,83,0.00,,,0.70,meteohub,2013-11-06 18:09:00,
2013-11-06 12:14:00,43.0,38.1,-100.00,West,272,10.0,21.0,83,0.00,,,0.70,meteohub,2013-11-06 18:14:00,
2013-11-06 12:19:00,42.8,37.9,-100.00,SW,234,4.0,21.0,83,0.00,,,0.70,meteohub,2013-11-06 18:19:00,
2013-11-06 12:24:00,43.0,38.1,-100.00,WNW,294,10.0,18.0,83,0.00,,,0.70,meteohub,2013-11-06 18:24:00,
2013-11-06 12:29:00,42.8,37.9,-100.00,WNW,291,7.0,18.0,83,0.00,,,0.70,meteohub,2013-11-06 18:29:00,
2013-11-06 12:34:00,42.6,37.6,-100.00,West,277,5.0,18.0,82,0.00,,,0.70,meteohub,2013-11-06 18:34:00,
2013-11-06 12:39:00,42.6,37.8,-100.00,West,265,3.0,17.0,83,0.00,,,0.70,meteohub,2013-11-06 18:39:00,
2013-11-06 12:44:00,42.8,37.8,-100.00,WNW,295,10.0,17.0,82,0.00,,,0.70,meteohub,2013-11-06 18:44:00,
2013-11-06 12:49:00,43.0,37.6,-100.00,NW,322,12.0,17.0,81,0.00,,,0.70,meteohub,2013-11-06 18:49:00,
2013-11-06 12:54:00,43.2,37.4,-100.00,NW,325,12.0,18.0,80,0.00,,,0.70,meteohub,2013-11-06 18:54:00,
2013-11-06 12:59:00,43.3,37.6,-100.00,West,279,7.0,18.0,80,0.00,,,0.70,meteohub,2013-11-06 18:59:00,
2013-11-06 13:04:00,43.5,37.4,-100.00,WNW,284,6.0,17.0,79,0.00,,,0.70,meteohub,2013-11-06 19:04:00,
2013-11-06 13:09:00,43.9,37.8,-100.00,WNW,295,9.0,17.0,79,0.00,,,0.70,meteohub,2013-11-06 19:09:00,
2013-11-06 13:14:00,44.2,38.1,-100.00,WNW,294,7.0,17.0,79,0.00,,,0.70,meteohub,2013-11-06 19:14:00,
2013-11-06 13:19:00,44.4,37.9,-100.00,WNW,288,4.0,17.0,78,0.00,,,0.70,meteohub,2013-11-06 19:19:00,
2013-11-06 13:24:00,44.2,37.8,-100.00,WSW,252,4.0,14.0,78,0.00,,,0.70,meteohub,2013-11-06 19:24:00,
2013-11-06 13:29:00,44.2,37.8,-100.00,WNW,298,11.0,15.0,78,0.00,,,0.70,meteohub,2013-11-06 19:29:00,
2013-11-06 13:34:00,44.2,37.8,-100.00,WNW,294,6.0,15.0,78,0.00,,,0.70,meteohub,2013-11-06 19:34:00,
2013-11-06 13:39:00,44.2,37.8,-100.00,WNW,298,5.0,15.0,78,0.00,,,0.70,meteohub,2013-11-06 19:39:00,
2013-11-06 13:45:00,44.2,37.8,-100.00,WNW,284,4.0,20.0,78,0.00,,,0.70,meteohub,2013-11-06 19:45:00,
2013-11-06 13:50:00,44.2,37.6,-100.00,NNW,328,4.0,20.0,77,0.00,,,0.70,meteohub,2013-11-06 19:50:00,
2013-11-06 13:55:00,44.4,37.6,-100.00,WNW,294,3.0,20.0,77,0.00,,,0.70,meteohub,2013-11-06 19:55:00,
2013-11-06 14:00:00,44.2,37.2,-100.00,WNW,303,9.0,13.0,76,0.00,,,0.70,meteohub,2013-11-06 20:00:00,
2013-11-06 14:05:00,44.2,36.9,-100.00,NW,305,9.0,18.0,75,0.00,,,0.70,meteohub,2013-11-06 20:05:00,
2013-11-06 14:10:00,44.2,37.2,-100.00,WSW,255,6.0,18.0,76,0.00,,,0.70,meteohub,2013-11-06 20:10:00,
2013-11-06 14:15:00,44.2,37.2,-100.00,WNW,294,9.0,18.0,76,0.00,,,0.70,meteohub,2013-11-06 20:15:00,
2013-11-06 14:20:00,44.2,37.6,-100.00,West,276,7.0,16.0,77,0.00,,,0.70,meteohub,2013-11-06 20:20:00,
2013-11-06 14:25:00,44.1,37.0,-100.00,WNW,292,7.0,16.0,76,0.00,,,0.70,meteohub,2013-11-06 20:25:00,
2013-11-06 14:30:00,43.9,37.2,-100.00,WNW,294,2.0,20.0,77,0.00,,,0.70,meteohub,2013-11-06 20:30:00,
2013-11-06 14:35:00,44.1,37.4,-100.00,NW,313,3.0,20.0,77,0.00,,,0.70,meteohub,2013-11-06 20:35:00,
2013-11-06 14:40:00,44.2,37.6,-100.00,WNW,284,5.0,20.0,77,0.00,,,0.70,meteohub,2013-11-06 20:40:00,
2013-11-06 14:45:00,44.4,37.4,-100.00,WNW,294,6.0,16.0,76,0.00,,,0.70,meteohub,2013-11-06 20:45:00,
2013-11-06 14:50:00,44.4,37.0,-100.00,NW,323,5.0,16.0,75,0.00,,,0.70,meteohub,2013-11-06 20:50:00,
2013-11-06 14:55:00,44.4,36.7,-100.00,WNW,298,5.0,16.0,74,0.00,,,0.70,meteohub,2013-11-06 20:55:00,
2013-11-06 15:00:00,44.4,36.7,-100.00,West,279,6.0,16.0,74,0.00,,,0.70,meteohub,2013-11-06 21:00:00,
2013-11-06 15:05:00,44.8,36.7,-100.00,NW,324,8.0,16.0,73,0.00,,,0.70,meteohub,2013-11-06 21:05:00,
2013-11-06 15:10:00,44.8,37.0,-100.00,West,267,7.0,14.0,74,0.00,,,0.70,meteohub,2013-11-06 21:10:00,
2013-11-06 15:15:00,44.8,37.0,-100.00,West,272,6.0,14.0,74,0.00,,,0.70,meteohub,2013-11-06 21:15:00,
2013-11-06 15:20:00,45.0,37.2,-100.00,West,265,6.0,13.0,74,0.00,,,0.70,meteohub,2013-11-06 21:20:00,
2013-11-06 15:25:00,45.0,36.9,-100.00,West,274,4.0,13.0,73,0.00,,,0.70,meteohub,2013-11-06 21:25:00,
2013-11-06 15:30:00,45.0,36.9,-100.00,WNW,284,10.0,12.0,73,0.00,,,0.70,meteohub,2013-11-06 21:30:00,
2013-11-06 15:35:00,45.0,36.9,-100.00,West,273,5.0,12.0,73,0.00,,,0.70,meteohub,2013-11-06 21:35:00,
2013-11-06 15:40:00,45.0,36.9,-100.00,West,272,6.0,11.0,73,0.00,,,0.70,meteohub,2013-11-06 21:40:00,
2013-11-06 15:45:00,45.0,36.9,-100.00,West,277,9.0,15.0,73,0.00,,,0.70,meteohub,2013-11-06 21:45:00,
2013-11-06 15:50:00,45.0,36.9,-100.00,West,271,2.0,15.0,73,0.00,,,0.70,meteohub,2013-11-06 21:50:00,
2013-11-06 15:55:00,44.8,37.0,-100.00,NW,306,5.0,13.0,74,0.00,,,0.70,meteohub,2013-11-06 21:55:00,
2013-11-06 16:00:00,44.8,37.0,-100.00,West,272,0.0,10.0,74,0.00,,,0.70,meteohub,2013-11-06 22:00:00,
2013-11-06 16:05:00,44.8,37.4,-100.00,West,263,3.0,11.0,75,0.00,,,0.70,meteohub,2013-11-06 22:05:00,
2013-11-06 16:10:00,44.8,37.0,-100.00,West,275,2.0,11.0,74,0.00,,,0.70,meteohub,2013-11-06 22:10:00,
2013-11-06 16:15:00,45.0,37.2,-100.00,West,263,0.0,11.0,74,0.00,,,0.70,meteohub,2013-11-06 22:15:00,
2013-11-06 16:20:00,45.0,37.2,-100.00,West,266,2.0,12.0,74,0.00,,,0.70,meteohub,2013-11-06 22:20:00,
2013-11-06 16:25:00,45.0,37.6,-100.00,West,277,0.0,12.0,75,0.00,,,0.70,meteohub,2013-11-06 22:25:00,
2013-11-06 16:30:00,45.0,37.6,-100.00,WNW,284,0.0,12.0,75,0.00,,,0.70,meteohub,2013-11-06 22:30:00,
2013-11-06 16:35:00,44.8,37.4,-100.00,West,273,6.0,12.0,75,0.00,,,0.70,meteohub,2013-11-06 22:35:00,
2013-11-06 16:40:00,44.4,37.0,-100.00,WNW,287,4.0,12.0,75,0.00,,,0.70,meteohub,2013-11-06 22:40:00,
2013-11-06 16:45:00,44.2,37.2,-100.00,West,276,0.0,10.0,76,0.00,,,0.70,meteohub,2013-11-06 22:45:00,
2013-11-06 16:50:00,44.1,37.0,-100.00,West,268,0.0,9.0,76,0.00,,,0.70,meteohub,2013-11-06 22:50:00,
2013-11-06 16:55:00,43.9,37.2,-100.00,West,272,5.0,9.0,77,0.00,,,0.70,meteohub,2013-11-06 22:55:00,
2013-11-06 17:00:00,43.5,36.9,-100.00,West,268,0.0,9.0,77,0.00,,,0.70,meteohub,2013-11-06 23:00:00,
2013-11-06 17:05:00,43.3,36.9,-100.00,West,271,0.0,5.0,78,0.00,,,0.70,meteohub,2013-11-06 23:05:00,
2013-11-06 17:10:00,43.2,36.7,-100.00,West,264,0.0,5.0,78,0.00,,,0.70,meteohub,2013-11-06 23:10:00,
2013-11-06 17:15:00,43.2,36.7,-100.00,WNW,294,2.0,7.0,78,0.00,,,0.70,meteohub,2013-11-06 23:15:00,
2013-11-06 17:20:00,43.2,36.7,-100.00,WNW,292,6.0,7.0,78,0.00,,,0.70,meteohub,2013-11-06 23:20:00,
2013-11-06 17:25:00,43.2,36.5,-100.00,WNW,286,5.0,7.0,77,0.00,,,0.70,meteohub,2013-11-06 23:25:00,
2013-11-06 17:30:00,43.2,35.8,-100.00,NW,304,4.0,10.0,75,0.00,,,0.70,meteohub,2013-11-06 23:30:00,
2013-11-06 17:36:00,43.2,35.8,-100.00,NW,307,6.0,10.0,75,0.00,,,0.70,meteohub,2013-11-06 23:36:00,
2013-11-06 17:41:00,43.3,35.6,-100.00,WNW,283,3.0,11.0,74,0.00,,,0.70,meteohub,2013-11-06 23:41:00,
2013-11-06 17:46:00,43.3,35.6,-100.00,WNW,297,5.0,11.0,74,0.00,,,0.70,meteohub,2013-11-06 23:46:00,
2013-11-06 17:51:00,43.2,35.4,-100.00,WNW,284,2.0,11.0,74,0.00,,,0.70,meteohub,2013-11-06 23:51:00,
2013-11-06 17:56:00,43.0,35.2,-100.00,WNW,294,0.0,11.0,74,0.00,,,0.70,meteohub,2013-11-06 23:56:00,
2013-11-06 18:01:00,42.8,35.1,-100.00,NW,313,0.0,11.0,74,0.00,,,0.70,meteohub,2013-11-07 00:01:00,
2013-11-06 18:06:00,42.6,34.9,-100.00,WNW,299,0.0,4.0,74,0.00,,,0.00,meteohub,2013-11-07 00:06:00,
2013-11-06 18:11:00,42.4,34.7,-100.00,WNW,296,0.0,1.0,74,0.00,,,0.00,meteohub,2013-11-07 00:11:00,
2013-11-06 18:16:00,42.3,34.9,-100.00,WNW,297,0.0,1.0,75,0.00,,,0.00,meteohub,2013-11-07 00:16:00,
2013-11-06 18:21:00,42.1,34.7,-100.00,WNW,296,0.0,0.0,75,0.00,,,0.00,meteohub,2013-11-07 00:21:00,
2013-11-06 18:26:00,41.7,34.7,-100.00,WNW,297,0.0,0.0,76,0.00,,,0.00,meteohub,2013-11-07 00:26:00,
2013-11-06 18:31:00,41.5,34.5,-100.00,WNW,296,0.0,0.0,76,0.00,,,0.00,meteohub,2013-11-07 00:31:00,
2013-11-06 18:36:00,41.4,34.3,-100.00,WNW,296,0.0,0.0,76,0.00,,,0.00,meteohub,2013-11-07 00:36:00,
2013-11-06 18:41:00,41.2,34.2,-100.00,WNW,296,0.0,0.0,76,0.00,,,0.00,meteohub,2013-11-07 00:41:00,
2013-11-06 18:46:00,41.0,34.3,-100.00,WNW,296,0.0,0.0,77,0.00,,,0.00,meteohub,2013-11-07 00:46:00,
2013-11-06 18:51:00,40.8,33.8,-100.00,WNW,296,0.0,0.0,76,0.00,,,0.00,meteohub,2013-11-07 00:51:00,
2013-11-06 18:56:00,40.8,33.8,-100.00,WNW,296,0.0,0.0,76,0.00,,,0.00,meteohub,2013-11-07 00:56:00,
2013-11-06 19:01:00,40.6,33.6,-100.00,WNW,296,0.0,0.0,76,0.00,,,0.00,meteohub,2013-11-07 01:01:00,
2013-11-06 19:06:00,40.5,33.4,-100.00,WNW,296,0.0,0.0,76,0.00,,,0.00,meteohub,2013-11-07 01:06:00,
2013-11-06 19:11:00,40.3,33.3,-100.00,WNW,296,0.0,0.0,76,0.00,,,0.00,meteohub,2013-11-07 01:11:00,
2013-11-06 19:16:00,39.9,33.3,-100.00,WNW,296,0.0,0.0,77,0.00,,,0.00,meteohub,2013-11-07 01:16:00,
2013-11-06 19:21:00,39.4,32.7,-100.00,WNW,296,0.0,0.0,77,0.00,,,0.00,meteohub,2013-11-07 01:21:00,
2013-11-06 19:26:00,39.0,32.7,-100.00,WNW,296,0.0,0.0,78,0.00,,,0.00,meteohub,2013-11-07 01:26:00,
2013-11-06 19:32:00,38.5,32.2,-100.00,WNW,296,0.0,0.0,78,0.00,,,0.00,meteohub,2013-11-07 01:32:00,
2013-11-06 19:37:00,38.3,32.4,-100.00,WNW,296,0.0,0.0,79,0.00,,,0.00,meteohub,2013-11-07 01:37:00,
2013-11-06 19:42:00,38.3,32.4,-100.00,WNW,296,0.0,0.0,79,0.00,,,0.00,meteohub,2013-11-07 01:42:00,
2013-11-06 19:47:00,38.3,32.4,-100.00,WNW,296,0.0,0.0,79,0.00,,,0.00,meteohub,2013-11-07 01:47:00,
2013-11-06 19:52:00,38.1,32.2,-100.00,WNW,296,0.0,0.0,79,0.00,,,0.00,meteohub,2013-11-07 01:52:00,
2013-11-06 19:57:00,38.1,32.5,-100.00,WNW,296,0.0,0.0,80,0.00,,,0.00,meteohub,2013-11-07 01:57:00,
2013-11-06 20:02:00,38.3,32.7,-100.00,WNW,296,0.0,0.0,80,0.00,,,0.00,meteohub,2013-11-07 02:02:00,
2013-11-06 20:07:00,38.3,32.7,-100.00,WNW,296,0.0,0.0,80,0.00,,,0.00,meteohub,2013-11-07 02:07:00,
2013-11-06 20:12:00,38.1,32.5,-100.00,WNW,296,0.0,0.0,80,0.00,,,0.00,meteohub,2013-11-07 02:12:00,
2013-11-06 20:17:00,37.8,32.2,-100.00,WNW,296,0.0,0.0,80,0.00,,,0.00,meteohub,2013-11-07 02:17:00,
2013-11-06 20:22:00,37.6,32.0,-100.00,WNW,295,0.0,0.0,80,0.00,,,0.00,meteohub,2013-11-07 02:22:00,
2013-11-06 20:27:00,37.2,32.0,-100.00,WNW,296,0.0,0.0,81,0.00,,,0.00,meteohub,2013-11-07 02:27:00,
2013-11-06 20:32:00,37.2,32.0,-100.00,WNW,295,0.0,0.0,81,0.00,,,0.00,meteohub,2013-11-07 02:32:00,
2013-11-06 20:37:00,37.2,32.0,-100.00,WNW,296,0.0,0.0,81,0.00,,,0.00,meteohub,2013-11-07 02:37:00,
2013-11-06 20:42:00,37.0,31.8,-100.00,WNW,296,0.0,0.0,81,0.00,,,0.00,meteohub,2013-11-07 02:42:00,
2013-11-06 20:47:00,36.9,31.6,-100.00,WNW,290,0.0,0.0,81,0.00,,,0.00,meteohub,2013-11-07 02:47:00,
2013-11-06 20:52:00,36.9,31.6,-100.00,WNW,290,0.0,0.0,81,0.00,,,0.00,meteohub,2013-11-07 02:52:00,
2013-11-06 20:57:00,36.9,31.6,-100.00,WNW,286,0.0,0.0,81,0.00,,,0.00,meteohub,2013-11-07 02:57:00,
2013-11-06 21:03:00,36.9,31.6,-100.00,WNW,283,0.0,0.0,81,0.00,,,0.00,meteohub,2013-11-07 03:03:00,
2013-11-06 21:08:00,37.0,31.8,-100.00,WNW,282,0.0,0.0,81,0.00,,,0.00,meteohub,2013-11-07 03:08:00,
2013-11-06 21:13:00,37.0,31.5,-100.00,West,279,0.0,0.0,80,0.00,,,0.00,meteohub,2013-11-07 03:13:00,
2013-11-06 21:18:00,37.0,31.5,-100.00,West,279,0.0,0.0,80,0.00,,,0.00,meteohub,2013-11-07 03:18:00,
2013-11-06 21:23:00,37.0,31.5,-100.00,West,279,0.0,0.0,80,0.00,,,0.00,meteohub,2013-11-07 03:23:00,
2013-11-06 21:28:00,36.9,31.3,-100.00,West,277,0.0,0.0,80,0.00,,,0.00,meteohub,2013-11-07 03:28:00,
2013-11-06 21:33:00,36.7,31.1,-100.00,West,275,0.0,0.0,80,0.00,,,0.00,meteohub,2013-11-07 03:33:00,
2013-11-06 21:38:00,36.7,31.1,-100.00,West,275,0.0,0.0,80,0.00,,,0.00,meteohub,2013-11-07 03:38:00,
2013-11-06 21:43:00,36.9,31.3,-100.00,West,275,0.0,0.0,80,0.00,,,0.00,meteohub,2013-11-07 03:43:00,
2013-11-06 21:48:00,36.7,31.1,-100.00,West,275,0.0,0.0,80,0.00,,,0.00,meteohub,2013-11-07 03:48:00,
2013-11-06 21:53:00,36.7,31.1,-100.00,West,275,0.0,0.0,80,0.00,,,0.00,meteohub,2013-11-07 03:53:00,
2013-11-06 21:58:00,36.3,30.7,-100.00,West,275,0.0,0.0,80,0.00,,,0.00,meteohub,2013-11-07 03:58:00,
2013-11-06 22:03:00,36.1,30.9,-100.00,West,275,0.0,0.0,81,0.00,,,0.00,meteohub,2013-11-07 04:03:00,
2013-11-06 22:08:00,36.1,30.9,-100.00,West,275,0.0,0.0,81,0.00,,,0.00,meteohub,2013-11-07 04:08:00,
2013-11-06 22:13:00,36.0,30.7,-100.00,West,275,0.0,0.0,81,0.00,,,0.00,meteohub,2013-11-07 04:13:00,
2013-11-06 22:18:00,36.0,30.7,-100.00,West,276,0.0,0.0,81,0.00,,,0.00,meteohub,2013-11-07 04:18:00,
2013-11-06 22:23:00,36.0,30.7,-100.00,West,276,0.0,0.0,81,0.00,,,0.00,meteohub,2013-11-07 04:23:00,
2013-11-06 22:28:00,35.8,30.6,-100.00,West,276,0.0,0.0,81,0.00,,,0.00,meteohub,2013-11-07 04:28:00,
2013-11-06 22:33:00,35.4,30.2,-100.00,West,276,0.0,0.0,81,0.00,,,0.00,meteohub,2013-11-07 04:33:00,
2013-11-06 22:38:00,35.2,30.0,-100.00,West,276,0.0,0.0,81,0.00,,,0.00,meteohub,2013-11-07 04:38:00,
2013-11-06 22:43:00,35.2,30.4,-100.00,West,276,0.0,0.0,82,0.00,,,0.00,meteohub,2013-11-07 04:43:00,
2013-11-06 22:48:00,35.1,30.2,-100.00,West,276,0.0,0.0,82,0.00,,,0.00,meteohub,2013-11-07 04:48:00,
2013-11-06 22:53:00,34.9,30.0,-100.00,West,276,0.0,0.0,82,0.00,,,0.00,meteohub,2013-11-07 04:53:00,
2013-11-06 22:58:00,34.7,30.0,-100.00,West,276,0.0,0.0,83,0.00,,,0.00,meteohub,2013-11-07 04:58:00,
2013-11-06 23:01:00,34.7,30.0,-100.00,West,276,0.0,0.0,83,0.00,,,0.00,meteohub,2013-11-07 05:01:00,
2013-11-06 23:02:00,34.5,29.8,-100.00,West,276,0.0,0.0,83,0.00,,,0.00,meteohub,2013-11-07 05:02:00,
2013-11-06 23:06:00,34.5,29.8,-100.00,West,276,0.0,0.0,83,0.00,,,0.00,meteohub,2013-11-07 05:06:00,
2013-11-06 23:11:00,34.3,29.7,-100.00,West,276,0.0,0.0,83,0.00,,,0.00,meteohub,2013-11-07 05:11:00,
2013-11-06 23:16:00,34.3,30.0,-100.00,West,276,0.0,0.0,84,0.00,,,0.00,meteohub,2013-11-07 05:16:00,
2013-11-06 23:21:00,34.3,30.0,-100.00,West,276,0.0,0.0,84,0.00,,,0.00,meteohub,2013-11-07 05:21:00,
2013-11-06 23:27:00,34.3,30.0,-100.00,West,276,0.0,0.0,84,0.00,,,0.00,meteohub,2013-11-07 05:27:00,
2013-11-06 23:32:00,34.3,30.0,-100.00,West,276,0.0,0.0,84,0.00,,,0.00,meteohub,2013-11-07 05:32:00,
2013-11-06 23:37:00,34.2,29.8,-100.00,West,276,0.0,0.0,84,0.00,,,0.00,meteohub,2013-11-07 05:37:00,
2013-11-06 23:42:00,34.2,30.2,-100.00,West,276,0.0,0.0,85,0.00,,,0.00,meteohub,2013-11-07 05:42:00,
2013-11-06 23:47:00,34.3,30.4,-100.00,West,275,0.0,0.0,85,0.00,,,0.00,meteohub,2013-11-07 05:47:00,
2013-11-06 23:52:00,34.3,30.4,-100.00,West,274,0.0,0.0,85,0.00,,,0.00,meteohub,2013-11-07 05:52:00,
2013-11-06 23:57:00,34.3,30.4,-100.00,West,274,0.0,0.0,85,0.00,,,0.00,meteohub,2013-11-07 05:57:00,